Year,Month,Day,Hour,Minute,Value (Times are PST for temperature in C)
2014,07,08,00,00,20.60
2014,07,08,00,01,20.50
2014,07,08,00,02,20.50
2014,07,08,00,03,20.50
2014,07,08,00,04,20.40
2014,07,08,00,05,20.40
2014,07,08,00,06,20.40
2014,07,08,00,07,20.40
2014,07,08,00,08,20.40
2014,07,08,00,09,20.40
2014,07,08,00,10,20.30
2014,07,08,00,11,20.30
2014,07,08,00,12,20.30
2014,07,08,00,13,20.30
2014,07,08,00,14,20.30
2014,07,08,00,15,20.30
2014,07,08,00,16,20.30
2014,07,08,00,17,20.30
2014,07,08,00,18,20.30
2014,07,08,00,19,20.20
2014,07,08,00,20,20.20
2014,07,08,00,21,20.20
2014,07,08,00,22,20.20
2014,07,08,00,23,20.20
2014,07,08,00,24,20.20
2014,07,08,00,25,20.20
2014,07,08,00,26,20.20
2014,07,08,00,27,20.20
2014,07,08,00,28,20.10
2014,07,08,00,29,20.10
2014,07,08,00,30,20.10
2014,07,08,00,31,20.10
2014,07,08,00,32,20.00
2014,07,08,00,33,20.00
2014,07,08,00,34,19.90
2014,07,08,00,35,19.90
2014,07,08,00,36,19.90
2014,07,08,00,37,19.80
2014,07,08,00,38,19.80
2014,07,08,00,39,19.80
2014,07,08,00,40,19.80
2014,07,08,00,41,19.70
2014,07,08,00,42,19.70
2014,07,08,00,43,19.70
2014,07,08,00,44,19.60
2014,07,08,00,45,19.60
2014,07,08,00,46,19.60
2014,07,08,00,47,19.60
2014,07,08,00,48,19.60
2014,07,08,00,49,19.60
2014,07,08,00,50,19.50
2014,07,08,00,51,19.50
2014,07,08,00,52,19.50
2014,07,08,00,53,19.40
2014,07,08,00,54,19.40
2014,07,08,00,55,19.40
2014,07,08,00,56,19.40
2014,07,08,00,57,19.40
2014,07,08,00,58,19.30
2014,07,08,00,59,19.30
2014,07,08,01,00,19.30
2014,07,08,01,01,19.30
2014,07,08,01,02,19.30
2014,07,08,01,03,19.30
2014,07,08,01,04,19.20
2014,07,08,01,05,19.20
2014,07,08,01,06,19.20
2014,07,08,01,07,19.20
2014,07,08,01,08,19.20
2014,07,08,01,09,19.20
2014,07,08,01,10,19.10
2014,07,08,01,11,19.10
2014,07,08,01,12,19.10
2014,07,08,01,13,19.10
2014,07,08,01,14,19.10
2014,07,08,01,15,19.10
2014,07,08,01,16,19.00
2014,07,08,01,17,19.00
2014,07,08,01,18,19.00
2014,07,08,01,19,18.90
2014,07,08,01,20,18.90
2014,07,08,01,21,18.90
2014,07,08,01,22,18.90
2014,07,08,01,23,18.90
2014,07,08,01,24,18.80
2014,07,08,01,25,18.80
2014,07,08,01,26,18.80
2014,07,08,01,27,18.80
2014,07,08,01,28,18.80
2014,07,08,01,29,18.80
2014,07,08,01,30,18.80
2014,07,08,01,31,18.70
2014,07,08,01,32,18.70
2014,07,08,01,33,18.70
2014,07,08,01,34,18.70
2014,07,08,01,35,18.70
2014,07,08,01,36,18.60
2014,07,08,01,37,18.60
2014,07,08,01,38,18.60
2014,07,08,01,39,18.60
2014,07,08,01,40,18.60
2014,07,08,01,41,18.50
2014,07,08,01,42,18.50
2014,07,08,01,43,18.50
2014,07,08,01,44,18.40
2014,07,08,01,45,18.40
2014,07,08,01,46,18.40
2014,07,08,01,47,18.40
2014,07,08,01,48,18.30
2014,07,08,01,49,18.30
2014,07,08,01,50,18.30
2014,07,08,01,51,18.30
2014,07,08,01,52,18.30
2014,07,08,01,53,18.30
2014,07,08,01,54,18.20
2014,07,08,01,55,18.20
2014,07,08,01,56,18.20
2014,07,08,01,57,18.20
2014,07,08,01,58,18.20
2014,07,08,01,59,18.10
2014,07,08,02,00,18.10
2014,07,08,02,01,18.10
2014,07,08,02,02,18.10
2014,07,08,02,03,18.10
2014,07,08,02,04,18.00
2014,07,08,02,05,18.00
2014,07,08,02,06,18.00
2014,07,08,02,07,18.00
2014,07,08,02,08,18.00
2014,07,08,02,09,18.00
2014,07,08,02,10,17.90
2014,07,08,02,11,17.90
2014,07,08,02,12,17.90
2014,07,08,02,13,17.90
2014,07,08,02,14,17.80
2014,07,08,02,15,17.80
2014,07,08,02,16,17.80
2014,07,08,02,17,17.80
2014,07,08,02,18,17.80
2014,07,08,02,19,17.70
2014,07,08,02,20,17.70
2014,07,08,02,21,17.70
2014,07,08,02,22,17.70
2014,07,08,02,23,17.70
2014,07,08,02,24,17.70
2014,07,08,02,25,17.70
2014,07,08,02,26,17.60
2014,07,08,02,27,17.60
2014,07,08,02,28,17.60
2014,07,08,02,29,17.60
2014,07,08,02,30,17.60
2014,07,08,02,31,17.60
2014,07,08,02,32,17.50
2014,07,08,02,33,17.50
2014,07,08,02,34,17.50
2014,07,08,02,35,17.50
2014,07,08,02,36,17.40
2014,07,08,02,37,17.40
2014,07,08,02,38,17.40
2014,07,08,02,39,17.40
2014,07,08,02,40,17.40
2014,07,08,02,41,17.40
2014,07,08,02,42,17.40
2014,07,08,02,43,17.40
2014,07,08,02,44,17.30
2014,07,08,02,45,17.40
2014,07,08,02,46,17.30
2014,07,08,02,47,17.30
2014,07,08,02,48,17.30
2014,07,08,02,49,17.30
2014,07,08,02,50,17.30
2014,07,08,02,51,17.30
2014,07,08,02,52,17.30
2014,07,08,02,53,17.30
2014,07,08,02,54,17.30
2014,07,08,02,55,17.30
2014,07,08,02,56,17.20
2014,07,08,02,57,17.20
2014,07,08,02,58,17.20
2014,07,08,02,59,17.20
2014,07,08,03,00,17.20
2014,07,08,03,01,17.20
2014,07,08,03,02,17.20
2014,07,08,03,03,17.10
2014,07,08,03,04,17.10
2014,07,08,03,05,17.10
2014,07,08,03,06,17.10
2014,07,08,03,07,17.10
2014,07,08,03,08,17.10
2014,07,08,03,09,17.10
2014,07,08,03,10,17.10
2014,07,08,03,11,17.00
2014,07,08,03,12,17.00
2014,07,08,03,13,17.00
2014,07,08,03,14,17.00
2014,07,08,03,15,16.90
2014,07,08,03,16,16.90
2014,07,08,03,17,16.90
2014,07,08,03,18,16.90
2014,07,08,03,19,16.90
2014,07,08,03,20,16.90
2014,07,08,03,21,16.90
2014,07,08,03,22,16.90
2014,07,08,03,23,16.90
2014,07,08,03,24,16.90
2014,07,08,03,25,16.90
2014,07,08,03,26,16.90
2014,07,08,03,27,16.90
2014,07,08,03,28,16.80
2014,07,08,03,29,16.80
2014,07,08,03,30,16.80
2014,07,08,03,31,16.80
2014,07,08,03,32,16.80
2014,07,08,03,33,16.80
2014,07,08,03,34,16.70
2014,07,08,03,35,16.70
2014,07,08,03,36,16.70
2014,07,08,03,37,16.70
2014,07,08,03,38,16.70
2014,07,08,03,39,16.70
2014,07,08,03,40,16.70
2014,07,08,03,41,16.70
2014,07,08,03,42,16.60
2014,07,08,03,43,16.60
2014,07,08,03,44,16.60
2014,07,08,03,45,16.60
2014,07,08,03,46,16.60
2014,07,08,03,47,16.60
2014,07,08,03,48,16.50
2014,07,08,03,49,16.50
2014,07,08,03,50,16.50
2014,07,08,03,51,16.50
2014,07,08,03,52,16.40
2014,07,08,03,53,16.40
2014,07,08,03,54,16.40
2014,07,08,03,55,16.40
2014,07,08,03,56,16.40
2014,07,08,03,57,16.40
2014,07,08,03,58,16.40
2014,07,08,03,59,16.40
2014,07,08,04,00,16.30
2014,07,08,04,01,16.30
2014,07,08,04,02,16.30
2014,07,08,04,03,16.30
2014,07,08,04,04,16.30
2014,07,08,04,05,16.30
2014,07,08,04,06,16.30
2014,07,08,04,07,16.30
2014,07,08,04,08,16.20
2014,07,08,04,09,16.20
2014,07,08,04,10,16.20
2014,07,08,04,11,16.20
2014,07,08,04,12,16.20
2014,07,08,04,13,16.20
2014,07,08,04,14,16.20
2014,07,08,04,15,16.20
2014,07,08,04,16,16.20
2014,07,08,04,17,16.20
2014,07,08,04,18,16.20
2014,07,08,04,19,16.20
2014,07,08,04,20,16.10
2014,07,08,04,21,16.10
2014,07,08,04,22,16.10
2014,07,08,04,23,16.10
2014,07,08,04,24,16.10
2014,07,08,04,25,16.10
2014,07,08,04,26,16.10
2014,07,08,04,27,16.10
2014,07,08,04,28,16.10
2014,07,08,04,29,16.00
2014,07,08,04,30,16.00
2014,07,08,04,31,16.00
2014,07,08,04,32,16.00
2014,07,08,04,33,16.00
2014,07,08,04,34,16.00
2014,07,08,04,35,16.00
2014,07,08,04,36,15.90
2014,07,08,04,37,15.90
2014,07,08,04,38,16.00
2014,07,08,04,39,16.00
2014,07,08,04,40,16.00
2014,07,08,04,41,16.00
2014,07,08,04,42,15.90
2014,07,08,04,43,15.90
2014,07,08,04,44,15.90
2014,07,08,04,45,15.90
2014,07,08,04,46,15.90
2014,07,08,04,47,15.90
2014,07,08,04,48,15.90
2014,07,08,04,49,15.90
2014,07,08,04,50,15.90
2014,07,08,04,51,15.90
2014,07,08,04,52,15.90
2014,07,08,04,53,15.90
2014,07,08,04,54,15.80
2014,07,08,04,55,15.80
2014,07,08,04,56,15.80
2014,07,08,04,57,15.80
2014,07,08,04,58,15.80
2014,07,08,04,59,15.80
2014,07,08,05,00,15.80
2014,07,08,05,01,15.80
2014,07,08,05,02,15.80
2014,07,08,05,03,15.80
2014,07,08,05,04,15.80
2014,07,08,05,05,15.80
2014,07,08,05,06,15.80
2014,07,08,05,07,15.80
2014,07,08,05,08,15.70
2014,07,08,05,09,15.70
2014,07,08,05,10,15.70
2014,07,08,05,11,15.70
2014,07,08,05,12,15.70
2014,07,08,05,13,15.70
2014,07,08,05,14,15.70
2014,07,08,05,15,15.70
2014,07,08,05,16,15.60
2014,07,08,05,17,15.60
2014,07,08,05,18,15.60
2014,07,08,05,19,15.60
2014,07,08,05,20,15.60
2014,07,08,05,21,15.60
2014,07,08,05,22,15.60
2014,07,08,05,23,15.50
2014,07,08,05,24,15.50
2014,07,08,05,25,15.50
2014,07,08,05,26,15.40
2014,07,08,05,27,15.40
2014,07,08,05,28,15.40
2014,07,08,05,29,15.40
2014,07,08,05,30,15.40
2014,07,08,05,31,15.40
2014,07,08,05,32,15.40
2014,07,08,05,33,15.40
2014,07,08,05,34,15.40
2014,07,08,05,35,15.30
2014,07,08,05,36,15.30
2014,07,08,05,37,15.30
2014,07,08,05,38,15.30
2014,07,08,05,39,15.20
2014,07,08,05,40,15.20
2014,07,08,05,41,15.20
2014,07,08,05,42,15.10
2014,07,08,05,43,15.10
2014,07,08,05,44,15.10
2014,07,08,05,45,15.00
2014,07,08,05,46,15.00
2014,07,08,05,47,15.00
2014,07,08,05,48,14.90
2014,07,08,05,49,14.90
2014,07,08,05,50,14.80
2014,07,08,05,51,14.80
2014,07,08,05,52,14.80
2014,07,08,05,53,14.80
2014,07,08,05,54,14.70
2014,07,08,05,55,14.70
2014,07,08,05,56,14.70
2014,07,08,05,57,14.70
2014,07,08,05,58,14.70
2014,07,08,05,59,14.70
2014,07,08,06,00,14.70
2014,07,08,06,01,14.70
2014,07,08,06,02,14.70
2014,07,08,06,03,14.70
2014,07,08,06,04,14.70
2014,07,08,06,05,14.70
2014,07,08,06,06,14.80
2014,07,08,06,07,14.80
2014,07,08,06,08,14.80
2014,07,08,06,09,14.80
2014,07,08,06,10,14.90
2014,07,08,06,11,14.90
2014,07,08,06,12,14.80
2014,07,08,06,13,14.80
2014,07,08,06,14,14.80
2014,07,08,06,15,14.80
2014,07,08,06,16,14.80
2014,07,08,06,17,14.80
2014,07,08,06,18,14.80
2014,07,08,06,19,14.90
2014,07,08,06,20,14.90
2014,07,08,06,21,15.00
2014,07,08,06,22,15.00
2014,07,08,06,23,15.00
2014,07,08,06,24,15.10
2014,07,08,06,25,15.10
2014,07,08,06,26,15.20
2014,07,08,06,27,15.20
2014,07,08,06,28,15.20
2014,07,08,06,29,15.20
2014,07,08,06,30,15.20
2014,07,08,06,31,15.30
2014,07,08,06,32,15.30
2014,07,08,06,33,15.30
2014,07,08,06,34,15.30
2014,07,08,06,35,15.30
2014,07,08,06,36,15.30
2014,07,08,06,37,15.20
2014,07,08,06,38,15.20
2014,07,08,06,39,15.20
2014,07,08,06,40,15.20
2014,07,08,06,41,15.20
2014,07,08,06,42,15.20
2014,07,08,06,43,15.20
2014,07,08,06,44,15.20
2014,07,08,06,45,15.30
2014,07,08,06,46,15.30
2014,07,08,06,47,15.30
2014,07,08,06,48,15.30
2014,07,08,06,49,15.40
2014,07,08,06,50,15.40
2014,07,08,06,51,15.50
2014,07,08,06,52,15.60
2014,07,08,06,53,15.60
2014,07,08,06,54,15.70
2014,07,08,06,55,15.70
2014,07,08,06,56,15.70
2014,07,08,06,57,15.70
2014,07,08,06,58,15.80
2014,07,08,06,59,15.80
2014,07,08,07,00,15.80
2014,07,08,07,01,15.80
2014,07,08,07,02,15.80
2014,07,08,07,03,15.90
2014,07,08,07,04,15.90
2014,07,08,07,05,15.90
2014,07,08,07,06,16.00
2014,07,08,07,07,16.10
2014,07,08,07,08,16.10
2014,07,08,07,09,16.20
2014,07,08,07,10,16.20
2014,07,08,07,11,16.30
2014,07,08,07,12,16.30
2014,07,08,07,13,16.40
2014,07,08,07,14,16.50
2014,07,08,07,15,16.50
2014,07,08,07,16,16.60
2014,07,08,07,17,16.60
2014,07,08,07,18,16.60
2014,07,08,07,19,16.70
2014,07,08,07,20,16.70
2014,07,08,07,21,16.70
2014,07,08,07,22,16.80
2014,07,08,07,23,16.80
2014,07,08,07,24,16.90
2014,07,08,07,25,16.90
2014,07,08,07,26,17.00
2014,07,08,07,27,17.10
2014,07,08,07,28,17.10
2014,07,08,07,29,17.10
2014,07,08,07,30,17.10
2014,07,08,07,31,17.10
2014,07,08,07,32,17.20
2014,07,08,07,33,17.20
2014,07,08,07,34,17.20
2014,07,08,07,35,17.20
2014,07,08,07,36,17.20
2014,07,08,07,37,17.30
2014,07,08,07,38,17.30
2014,07,08,07,39,17.40
2014,07,08,07,40,17.40
2014,07,08,07,41,17.50
2014,07,08,07,42,17.60
2014,07,08,07,43,17.70
2014,07,08,07,44,17.80
2014,07,08,07,45,17.90
2014,07,08,07,46,18.00
2014,07,08,07,47,18.00
2014,07,08,07,48,18.10
2014,07,08,07,49,18.20
2014,07,08,07,50,18.20
2014,07,08,07,51,18.20
2014,07,08,07,52,18.20
2014,07,08,07,53,18.20
2014,07,08,07,54,18.20
2014,07,08,07,55,18.20
2014,07,08,07,56,18.20
2014,07,08,07,57,18.10
2014,07,08,07,58,18.10
2014,07,08,07,59,18.00
2014,07,08,08,00,17.90
2014,07,08,08,01,17.90
2014,07,08,08,02,17.90
2014,07,08,08,03,17.80
2014,07,08,08,04,17.80
2014,07,08,08,05,17.70
2014,07,08,08,06,17.70
2014,07,08,08,07,17.70
2014,07,08,08,08,17.70
2014,07,08,08,09,17.70
2014,07,08,08,10,17.70
2014,07,08,08,11,17.70
2014,07,08,08,12,17.70
2014,07,08,08,13,17.80
2014,07,08,08,14,17.80
2014,07,08,08,15,17.80
2014,07,08,08,16,17.90
2014,07,08,08,17,17.90
2014,07,08,08,18,17.90
2014,07,08,08,19,18.00
2014,07,08,08,20,18.00
2014,07,08,08,21,17.90
2014,07,08,08,22,17.90
2014,07,08,08,23,17.80
2014,07,08,08,24,17.80
2014,07,08,08,25,17.80
2014,07,08,08,26,17.80
2014,07,08,08,27,17.70
2014,07,08,08,28,17.70
2014,07,08,08,29,17.70
2014,07,08,08,30,17.80
2014,07,08,08,31,17.80
2014,07,08,08,32,17.90
2014,07,08,08,33,17.90
2014,07,08,08,34,17.90
2014,07,08,08,35,17.90
2014,07,08,08,36,18.00
2014,07,08,08,37,18.10
2014,07,08,08,38,18.20
2014,07,08,08,39,18.20
2014,07,08,08,40,18.30
2014,07,08,08,41,18.40
2014,07,08,08,42,18.40
2014,07,08,08,43,18.40
2014,07,08,08,44,18.30
2014,07,08,08,45,18.30
2014,07,08,08,46,18.30
2014,07,08,08,47,18.30
2014,07,08,08,48,18.20
2014,07,08,08,49,18.20
2014,07,08,08,50,18.10
2014,07,08,08,51,18.10
2014,07,08,08,52,18.20
2014,07,08,08,53,18.20
2014,07,08,08,54,18.20
2014,07,08,08,55,18.30
2014,07,08,08,56,18.30
2014,07,08,08,57,18.40
2014,07,08,08,58,18.40
2014,07,08,08,59,18.40
2014,07,08,09,00,18.40
2014,07,08,09,01,18.30
2014,07,08,09,02,18.30
2014,07,08,09,03,18.20
2014,07,08,09,04,18.20
2014,07,08,09,05,18.30
2014,07,08,09,06,18.40
2014,07,08,09,07,18.50
2014,07,08,09,08,18.50
2014,07,08,09,09,18.60
2014,07,08,09,10,18.70
2014,07,08,09,11,18.70
2014,07,08,09,12,18.80
2014,07,08,09,13,18.80
2014,07,08,09,14,18.80
2014,07,08,09,15,18.80
2014,07,08,09,16,18.80
2014,07,08,09,17,18.70
2014,07,08,09,18,18.60
2014,07,08,09,19,18.60
2014,07,08,09,20,18.50
2014,07,08,09,21,18.50
2014,07,08,09,22,18.50
2014,07,08,09,23,18.50
2014,07,08,09,24,18.50
2014,07,08,09,25,18.50
2014,07,08,09,26,18.60
2014,07,08,09,27,18.60
2014,07,08,09,28,18.60
2014,07,08,09,29,18.70
2014,07,08,09,30,18.70
2014,07,08,09,31,18.80
2014,07,08,09,32,18.80
2014,07,08,09,33,18.90
2014,07,08,09,34,18.90
2014,07,08,09,35,19.00
2014,07,08,09,36,19.00
2014,07,08,09,37,19.10
2014,07,08,09,38,19.10
2014,07,08,09,39,19.10
2014,07,08,09,40,19.20
2014,07,08,09,41,19.20
2014,07,08,09,42,19.30
2014,07,08,09,43,19.30
2014,07,08,09,44,19.40
2014,07,08,09,45,19.40
2014,07,08,09,46,19.40
2014,07,08,09,47,19.40
2014,07,08,09,48,19.40
2014,07,08,09,49,19.40
2014,07,08,09,50,19.40
2014,07,08,09,51,19.50
2014,07,08,09,52,19.50
2014,07,08,09,53,19.50
2014,07,08,09,54,19.60
2014,07,08,09,55,19.70
2014,07,08,09,56,19.70
2014,07,08,09,57,19.80
2014,07,08,09,58,19.80
2014,07,08,09,59,19.80
2014,07,08,10,00,19.80
2014,07,08,10,01,19.90
2014,07,08,10,02,19.90
2014,07,08,10,03,20.00
2014,07,08,10,04,20.00
2014,07,08,10,05,19.90
2014,07,08,10,06,19.80
2014,07,08,10,07,19.80
2014,07,08,10,08,19.70
2014,07,08,10,09,19.70
2014,07,08,10,10,19.70
2014,07,08,10,11,19.70
2014,07,08,10,12,19.70
2014,07,08,10,13,19.70
2014,07,08,10,14,19.70
2014,07,08,10,15,19.70
2014,07,08,10,16,19.70
2014,07,08,10,17,19.80
2014,07,08,10,18,19.80
2014,07,08,10,19,19.80
2014,07,08,10,20,19.80
2014,07,08,10,21,19.80
2014,07,08,10,22,19.90
2014,07,08,10,23,19.90
2014,07,08,10,24,19.90
2014,07,08,10,25,20.00
2014,07,08,10,26,20.00
2014,07,08,10,27,20.00
2014,07,08,10,28,20.00
2014,07,08,10,29,20.00
2014,07,08,10,30,20.10
2014,07,08,10,31,20.00
2014,07,08,10,32,20.00
2014,07,08,10,33,19.90
2014,07,08,10,34,20.00
2014,07,08,10,35,20.00
2014,07,08,10,36,20.00
2014,07,08,10,37,19.90
2014,07,08,10,38,19.90
2014,07,08,10,39,19.90
2014,07,08,10,40,19.90
2014,07,08,10,41,20.00
2014,07,08,10,42,20.10
2014,07,08,10,43,20.10
2014,07,08,10,44,20.10
2014,07,08,10,45,20.20
2014,07,08,10,46,20.20
2014,07,08,10,47,20.30
2014,07,08,10,48,20.40
2014,07,08,10,49,20.40
2014,07,08,10,50,20.40
2014,07,08,10,51,20.40
2014,07,08,10,52,20.40
2014,07,08,10,53,20.40
2014,07,08,10,54,20.40
2014,07,08,10,55,20.40
2014,07,08,10,56,20.40
2014,07,08,10,57,20.50
2014,07,08,10,58,20.60
2014,07,08,10,59,20.70
2014,07,08,11,00,20.90
2014,07,08,11,01,20.90
2014,07,08,11,02,20.90
2014,07,08,11,03,20.90
2014,07,08,11,04,20.90
2014,07,08,11,05,20.80
2014,07,08,11,06,20.80
2014,07,08,11,07,20.80
2014,07,08,11,08,20.80
2014,07,08,11,09,20.80
2014,07,08,11,10,20.90
2014,07,08,11,11,20.90
2014,07,08,11,12,20.90
2014,07,08,11,13,21.00
2014,07,08,11,14,21.00
2014,07,08,11,15,21.00
2014,07,08,11,16,21.00
2014,07,08,11,17,21.00
2014,07,08,11,18,21.10
2014,07,08,11,19,21.10
2014,07,08,11,20,21.10
2014,07,08,11,21,21.10
2014,07,08,11,22,21.20
2014,07,08,11,23,21.20
2014,07,08,11,24,21.10
2014,07,08,11,25,21.10
2014,07,08,11,26,21.10
2014,07,08,11,27,21.10
2014,07,08,11,28,21.10
2014,07,08,11,29,21.10
2014,07,08,11,30,21.10
2014,07,08,11,31,21.10
2014,07,08,11,32,21.00
2014,07,08,11,33,20.90
2014,07,08,11,34,20.90
2014,07,08,11,35,20.80
2014,07,08,11,36,20.80
2014,07,08,11,37,20.70
2014,07,08,11,38,20.70
2014,07,08,11,39,20.70
2014,07,08,11,40,20.70
2014,07,08,11,41,20.80
2014,07,08,11,42,20.80
2014,07,08,11,43,20.80
2014,07,08,11,44,20.90
2014,07,08,11,45,20.90
2014,07,08,11,46,21.00
2014,07,08,11,47,21.00
2014,07,08,11,48,21.00
2014,07,08,11,49,21.00
2014,07,08,11,50,20.90
2014,07,08,11,51,20.90
2014,07,08,11,52,20.80
2014,07,08,11,53,20.70
2014,07,08,11,54,20.70
2014,07,08,11,55,20.70
2014,07,08,11,56,20.70
2014,07,08,11,57,20.70
2014,07,08,11,58,20.70
2014,07,08,11,59,20.60
2014,07,08,12,00,20.60
2014,07,08,12,01,20.60
2014,07,08,12,02,20.70
2014,07,08,12,03,20.80
2014,07,08,12,04,20.90
2014,07,08,12,05,21.00
2014,07,08,12,06,21.00
2014,07,08,12,07,21.00
2014,07,08,12,08,21.00
2014,07,08,12,09,21.10
2014,07,08,12,10,21.20
2014,07,08,12,11,21.30
2014,07,08,12,12,21.30
2014,07,08,12,13,21.40
2014,07,08,12,14,21.50
2014,07,08,12,15,21.60
2014,07,08,12,16,21.80
2014,07,08,12,17,21.80
2014,07,08,12,18,21.90
2014,07,08,12,19,21.90
2014,07,08,12,20,21.90
2014,07,08,12,21,22.00
2014,07,08,12,22,22.00
2014,07,08,12,23,22.00
2014,07,08,12,24,22.10
2014,07,08,12,25,22.10
2014,07,08,12,26,22.10
2014,07,08,12,27,22.00
2014,07,08,12,28,22.00
2014,07,08,12,29,22.00
2014,07,08,12,30,22.10
2014,07,08,12,31,22.20
2014,07,08,12,32,22.30
2014,07,08,12,33,22.40
2014,07,08,12,34,22.50
2014,07,08,12,35,22.60
2014,07,08,12,36,22.60
2014,07,08,12,37,22.60
2014,07,08,12,38,22.50
2014,07,08,12,39,22.40
2014,07,08,12,40,22.30
2014,07,08,12,41,22.30
2014,07,08,12,42,22.30
2014,07,08,12,43,22.30
2014,07,08,12,44,22.30
2014,07,08,12,45,22.20
2014,07,08,12,46,22.10
2014,07,08,12,47,22.00
2014,07,08,12,48,22.00
2014,07,08,12,49,22.00
2014,07,08,12,50,22.10
2014,07,08,12,51,22.10
2014,07,08,12,52,22.20
2014,07,08,12,53,22.30
2014,07,08,12,54,22.40
2014,07,08,12,55,22.40
2014,07,08,12,56,22.30
2014,07,08,12,57,22.20
2014,07,08,12,58,22.10
2014,07,08,12,59,22.10
2014,07,08,13,00,22.10
2014,07,08,13,01,22.20
2014,07,08,13,02,22.20
2014,07,08,13,03,22.30
2014,07,08,13,04,22.30
2014,07,08,13,05,22.30
2014,07,08,13,06,22.30
2014,07,08,13,07,22.30
2014,07,08,13,08,22.30
2014,07,08,13,09,22.40
2014,07,08,13,10,22.40
2014,07,08,13,11,22.50
2014,07,08,13,12,22.50
2014,07,08,13,13,22.40
2014,07,08,13,14,22.40
2014,07,08,13,15,22.30
2014,07,08,13,16,22.30
2014,07,08,13,17,22.30
2014,07,08,13,18,22.30
2014,07,08,13,19,22.30
2014,07,08,13,20,22.30
2014,07,08,13,21,22.20
2014,07,08,13,22,22.00
2014,07,08,13,23,21.80
2014,07,08,13,24,21.70
2014,07,08,13,25,21.70
2014,07,08,13,26,21.70
2014,07,08,13,27,21.70
2014,07,08,13,28,21.70
2014,07,08,13,29,21.70
2014,07,08,13,30,21.70
2014,07,08,13,31,21.80
2014,07,08,13,32,21.80
2014,07,08,13,33,21.90
2014,07,08,13,34,22.00
2014,07,08,13,35,22.10
2014,07,08,13,36,22.20
2014,07,08,13,37,22.20
2014,07,08,13,38,22.30
2014,07,08,13,39,22.40
2014,07,08,13,40,22.40
2014,07,08,13,41,22.50
2014,07,08,13,42,22.60
2014,07,08,13,43,22.60
2014,07,08,13,44,22.70
2014,07,08,13,45,22.80
2014,07,08,13,46,22.90
2014,07,08,13,47,23.10
2014,07,08,13,48,23.10
2014,07,08,13,49,23.20
2014,07,08,13,50,23.30
2014,07,08,13,51,23.40
2014,07,08,13,52,23.50
2014,07,08,13,53,23.60
2014,07,08,13,54,23.70
2014,07,08,13,55,23.70
2014,07,08,13,56,23.70
2014,07,08,13,57,23.70
2014,07,08,13,58,23.70
2014,07,08,13,59,23.70
2014,07,08,14,00,23.80
2014,07,08,14,01,23.90
2014,07,08,14,02,24.00
2014,07,08,14,03,24.10
2014,07,08,14,04,24.10
2014,07,08,14,05,24.20
2014,07,08,14,06,24.30
2014,07,08,14,07,24.40
2014,07,08,14,08,24.40
2014,07,08,14,09,24.50
2014,07,08,14,10,24.60
2014,07,08,14,11,24.60
2014,07,08,14,12,24.70
2014,07,08,14,13,24.80
2014,07,08,14,14,24.80
2014,07,08,14,15,24.80
2014,07,08,14,16,24.90
2014,07,08,14,17,25.00
2014,07,08,14,18,25.10
2014,07,08,14,19,25.20
2014,07,08,14,20,25.20
2014,07,08,14,21,25.30
2014,07,08,14,22,25.30
2014,07,08,14,23,25.30
2014,07,08,14,24,25.30
2014,07,08,14,25,25.40
2014,07,08,14,26,25.40
2014,07,08,14,27,25.40
2014,07,08,14,28,25.40
2014,07,08,14,29,25.30
2014,07,08,14,30,25.20
2014,07,08,14,31,25.30
2014,07,08,14,32,25.20
2014,07,08,14,33,25.20
2014,07,08,14,34,25.20
2014,07,08,14,35,25.20
2014,07,08,14,36,25.30
2014,07,08,14,37,25.40
2014,07,08,14,38,25.40
2014,07,08,14,39,25.60
2014,07,08,14,40,25.70
2014,07,08,14,41,25.80
2014,07,08,14,42,25.90
2014,07,08,14,43,26.00
2014,07,08,14,44,26.00
2014,07,08,14,45,26.10
2014,07,08,14,46,26.10
2014,07,08,14,47,26.10
2014,07,08,14,48,26.20
2014,07,08,14,49,26.20
2014,07,08,14,50,26.30
2014,07,08,14,51,26.40
2014,07,08,14,52,26.40
2014,07,08,14,53,26.40
2014,07,08,14,54,26.40
2014,07,08,14,55,26.40
2014,07,08,14,56,26.40
2014,07,08,14,57,26.40
2014,07,08,14,58,26.40
2014,07,08,14,59,26.40
2014,07,08,15,00,26.40
2014,07,08,15,01,26.40
2014,07,08,15,02,26.40
2014,07,08,15,03,26.40
2014,07,08,15,04,26.50
2014,07,08,15,05,26.60
2014,07,08,15,06,26.60
2014,07,08,15,07,26.60
2014,07,08,15,08,26.60
2014,07,08,15,09,26.60
2014,07,08,15,10,26.50
2014,07,08,15,11,26.40
2014,07,08,15,12,26.20
2014,07,08,15,13,26.10
2014,07,08,15,14,26.00
2014,07,08,15,15,26.00
2014,07,08,15,16,26.10
2014,07,08,15,17,26.20
2014,07,08,15,18,26.40
2014,07,08,15,19,26.50
2014,07,08,15,20,26.70
2014,07,08,15,21,26.80
2014,07,08,15,22,26.90
2014,07,08,15,23,27.10
2014,07,08,15,24,27.10
2014,07,08,15,25,27.10
2014,07,08,15,26,27.10
2014,07,08,15,27,27.00
2014,07,08,15,28,27.00
2014,07,08,15,29,27.00
2014,07,08,15,30,26.90
2014,07,08,15,31,26.90
2014,07,08,15,32,26.90
2014,07,08,15,33,26.90
2014,07,08,15,34,26.80
2014,07,08,15,35,26.80
2014,07,08,15,36,26.80
2014,07,08,15,37,26.80
2014,07,08,15,38,26.80
2014,07,08,15,39,26.80
2014,07,08,15,40,26.90
2014,07,08,15,41,26.90
2014,07,08,15,42,26.90
2014,07,08,15,43,26.90
2014,07,08,15,44,26.80
2014,07,08,15,45,26.80
2014,07,08,15,46,26.70
2014,07,08,15,47,26.60
2014,07,08,15,48,26.60
2014,07,08,15,49,26.60
2014,07,08,15,50,26.50
2014,07,08,15,51,26.60
2014,07,08,15,52,26.60
2014,07,08,15,53,26.70
2014,07,08,15,54,26.70
2014,07,08,15,55,26.80
2014,07,08,15,56,26.80
2014,07,08,15,57,26.80
2014,07,08,15,58,26.80
2014,07,08,15,59,26.90
2014,07,08,16,00,27.00
2014,07,08,16,01,27.00
2014,07,08,16,02,27.10
2014,07,08,16,03,27.20
2014,07,08,16,04,27.20
2014,07,08,16,05,27.30
2014,07,08,16,06,27.30
2014,07,08,16,07,27.30
2014,07,08,16,08,27.20
2014,07,08,16,09,27.20
2014,07,08,16,10,27.20
2014,07,08,16,11,27.20
2014,07,08,16,12,27.20
2014,07,08,16,13,27.20
2014,07,08,16,14,27.20
2014,07,08,16,15,27.20
2014,07,08,16,16,27.20
2014,07,08,16,17,27.20
2014,07,08,16,18,27.20
2014,07,08,16,19,27.20
2014,07,08,16,20,27.30
2014,07,08,16,21,27.30
2014,07,08,16,22,27.30
2014,07,08,16,23,27.30
2014,07,08,16,24,27.30
2014,07,08,16,25,27.30
2014,07,08,16,26,27.20
2014,07,08,16,27,27.20
2014,07,08,16,28,27.20
2014,07,08,16,29,27.20
2014,07,08,16,30,27.20
2014,07,08,16,31,27.20
2014,07,08,16,32,27.30
2014,07,08,16,33,27.30
2014,07,08,16,34,27.30
2014,07,08,16,35,27.30
2014,07,08,16,36,27.20
2014,07,08,16,37,27.20
2014,07,08,16,38,27.10
2014,07,08,16,39,27.10
2014,07,08,16,40,27.10
2014,07,08,16,41,27.10
2014,07,08,16,42,27.20
2014,07,08,16,43,27.40
2014,07,08,16,44,27.50
2014,07,08,16,45,27.70
2014,07,08,16,46,27.80
2014,07,08,16,47,27.90
2014,07,08,16,48,28.10
2014,07,08,16,49,28.20
2014,07,08,16,50,28.30
2014,07,08,16,51,28.30
2014,07,08,16,52,28.30
2014,07,08,16,53,28.30
2014,07,08,16,54,28.20
2014,07,08,16,55,28.20
2014,07,08,16,56,28.10
2014,07,08,16,57,28.00
2014,07,08,16,58,27.90
2014,07,08,16,59,27.90
2014,07,08,17,00,27.90
2014,07,08,17,01,27.90
2014,07,08,17,02,28.00
2014,07,08,17,03,28.00
2014,07,08,17,04,28.10
2014,07,08,17,05,28.00
2014,07,08,17,06,28.00
2014,07,08,17,07,27.90
2014,07,08,17,08,27.90
2014,07,08,17,09,27.90
2014,07,08,17,10,27.90
2014,07,08,17,11,27.90
2014,07,08,17,12,27.90
2014,07,08,17,13,27.90
2014,07,08,17,14,27.80
2014,07,08,17,15,27.80
2014,07,08,17,16,27.80
2014,07,08,17,17,27.80
2014,07,08,17,18,27.90
2014,07,08,17,19,27.90